#timestamp,LO_Frequency,Hit,StdDev 
1568502015.7,286046998.3,N
1568502035.5,286046996.5,N
1568502055.3,286046998.6,N
1568502075.2,286046998.6,N
1568502095.9,286046996.7,N
1568502115.7,286046997.5,N
1568502135.6,286046995.5,N
1568502155.4,286046997.0,N
1568502175.3,286046997.8,N
1568502195.1,286046990.4,Y
1568502196.0,286046990.4,P
1568502215.8,286046991.3,N
1568502235.7,286046988.9,P
1568502255.5,286046986.9,Y
1568502275.3,286046995.9,P
1568502295.2,286046992.1,P
1568502315.0,286046990.5,P
1568502315.9,286046990.5,Y
1568502335.8,286046996.0,P
1568502355.6,286046992.4,P
1568502375.4,286046991.4,P
1568502395.3,286046991.3,Y
1568502415.1,286046997.7,P
1568502435.9,286046998.8,N
1568502455.7,286047001.1,N
1568502475.5,286047000.8,N
1568502495.4,286047000.9,N
1568502515.2,286047000.6,N
1568502535.1,286046998.1,N
1568502536.0,286046998.1,N
1568502555.8,286047000.0,N
1568502575.6,286047001.0,N
1568502595.5,286046999.7,N
1568502615.3,286047001.7,N
1568502635.2,286047001.5,N
1568502655.9,286047002.0,N
1568502675.7,286047002.0,N
1568502695.6,286047006.0,N
1568502715.4,286047007.5,N
1568502735.2,286047006.5,N
1568502755.1,286047010.4,Y
1568502756.0,286047010.4,P
1568502775.8,286047008.9,N
1568502795.7,286047010.8,N
1568502815.5,286047009.3,N
1568502835.3,286047011.2,Y
1568502855.2,286047001.8,P
1568502875.0,286047003.1,N
1568502875.9,286047003.1,N
1568502895.8,286047004.3,N
1568502915.6,286047004.8,N
1568502935.4,286047001.7,N
1568502955.3,286047011.9,Y
1568502975.1,286047000.4,P
1568502995.9,286046998.6,N
1568503015.7,286047001.1,N
1568503035.5,286047000.2,N
1568503055.4,286046998.5,N
1568503075.2,286046996.6,N
1568503095.0,286046998.7,N
1568503096.0,286046998.7,N
1568503115.8,286047000.8,N
1568503135.6,286047002.7,N
1568503155.5,286047002.3,N
1568503175.3,286047002.0,N
1568503195.1,286046999.9,N
1568503215.9,286047004.4,N
1568503235.7,286047001.7,N
1568503255.6,286047004.1,N
1568503275.4,286047001.3,N
1568503295.2,286047004.5,N
1568503315.1,286047006.6,N
1568503316.0,286047006.6,N
1568503335.8,286047008.2,Y
1568503355.6,286047006.2,P
1568503375.5,286047008.3,P
1568503395.3,286047010.6,P
1568503415.2,286047008.5,N
1568503435.9,286047007.8,N
1568503455.7,286047013.3,Y
1568503475.6,286047007.8,P
1568503495.4,286047009.6,P
1568503515.2,286047013.2,P
1568503535.1,286047014.3,Y
1568503536.0,286047014.3,P
1568503555.8,286047007.6,P
1568503575.7,286047004.8,N
1568503595.5,286047004.5,N
1568503615.3,286047003.7,N
1568503635.2,286047004.6,N
1568503655.0,286047006.0,N
1568503655.9,286047006.0,N
1568503675.7,286047007.3,N
1568503695.6,286047008.7,N
1568503715.4,286047008.1,N
1568503735.3,286047008.3,N
1568503755.1,286047009.0,Y
1568503775.8,286047001.6,P
1568503795.7,286047003.5,N
1568503815.5,286047003.2,N
1568503835.3,286047005.8,N
1568503855.2,286047005.0,N
1568503875.0,286047004.6,N
1568503875.9,286047004.6,N
1568503895.8,286047009.2,Y
1568503915.6,286047008.0,P
1568503935.4,286047006.6,P
1568503955.3,286047004.5,P
1568503975.1,286047005.0,Y
1568503995.9,286047000.5,P
1568504015.7,286047000.2,N
1568504035.5,286047001.2,N
1568504055.4,286046996.6,N
1568504075.2,286046999.5,N
1568504095.0,286046999.6,N
1568504095.9,286046999.6,N
1568504115.8,286046999.0,N
1568504135.6,286046993.4,N
1568504155.5,286046991.9,N
1568504175.3,286046993.1,N
1568504195.1,286046993.9,N
1568504215.9,286046993.2,N
1568504235.7,286046991.2,N
1568504255.5,286046987.5,Y
1568504275.4,286046990.8,P
1568504295.2,286046990.6,N
1568504315.1,286046989.4,P
1568504316.0,286046989.4,Y
1568504335.8,286046995.7,P
1568504355.6,286046992.1,P
1568504375.5,286046993.7,P
1568504395.3,286046992.5,Y
1568504415.2,286046998.5,P
1568504435.9,286046998.8,N
1568504455.7,286046998.6,N
1568504475.6,286046998.2,N
1568504495.4,286046998.3,N
1568504515.2,286047002.7,N
1568504535.1,286047001.8,N
1568504536.0,286047001.8,N
1568504555.8,286047001.3,N
1568504575.7,286047002.5,N
1568504595.5,286047002.4,N
1568504615.3,286047000.0,N
1568504635.2,286046999.1,N
1568504655.0,286046997.6,N
1568504655.9,286046997.6,N
1568504675.7,286046992.6,Y
1568504695.6,286046992.8,P
1568504715.4,286046991.6,N
1568504735.3,286046987.6,P
1568504755.1,286046982.5,Y
1568504775.8,286046987.0,P
1568504795.7,286046986.6,P
1568504815.5,286046985.9,P
1568504835.4,286046984.2,Y
1568504855.2,286046995.9,P
1568504875.0,286046993.4,N
1568504875.9,286046993.4,N
1568504895.8,286046994.2,N
1568504915.6,286046993.4,N
1568504935.5,286046993.6,N
1568504955.3,286046993.9,N
1568504975.1,286046995.9,N
1568504995.9,286046997.2,N
1568505015.7,286046997.7,N
1568505035.5,286046996.9,N
1568505055.4,286046995.3,N
1568505075.2,286046996.0,N
1568505095.0,286046995.1,N
1568505096.0,286046995.1,N
1568505115.8,286046995.4,N
1568505135.6,286046994.9,N
1568505155.5,286046996.2,N
1568505175.3,286046997.6,N
1568505195.1,286046995.2,N
1568505215.9,286046995.6,N
1568505235.7,286046997.7,N
1568505255.6,286046997.4,N
1568505275.4,286046998.8,N
1568505295.2,286046996.6,N
1568505315.1,286047000.8,N
1568505316.0,286047000.8,N
1568505335.8,286047001.1,N
1568505355.6,286047002.0,N
1568505375.5,286047004.1,N
1568505395.3,286047004.5,N
1568505415.2,286047004.6,N
1568505435.9,286047006.8,N
1568505455.7,286047007.2,N
1568505475.6,286047005.6,N
1568505495.4,286047003.5,N
1568505515.2,286047005.6,N
1568505535.1,286047005.3,N
1568505536.0,286047005.3,N
1568505555.8,286047005.0,N
1568505575.7,286047007.5,N
1568505595.5,286047006.5,N
